Eelde, Netherlands

8:35 AM CEST on August 21, 2017 (GMT +0200)
Eelde

Weather History for EHGG - April, 2014

Change the Weather History Date:

Wednesday, April 9, 2014

  Actual Average Record
Temperature  
Mean Temperature 45 °F -  
Max Temperature 54 °F 56 °F 68 °F (2017)
Min Temperature 36 °F 38 °F 24 °F (2003)
Degree Days  
Heating Degree Days 20    
Moisture  
Dew Point 43 °F    
Average Humidity 85    
Maximum Humidity 100    
Minimum Humidity 57    
Precipitation  
Precipitation 0.04 in 0.07 in - ()
Sea Level Pressure  
Sea Level Pressure 30.15 in    
Wind  
Wind Speed 9 mph ()    
Max Wind Speed 17 mph    
Max Gust Speed -    
Visibility 6.3 miles    
Events Rain    
Averages and records for this station are not official NWS values.
T = Trace of Precipitation, MM = Missing Value Source: Averaged Metar Reports

Daily Weather History Graph

Daily Weather History Graph

Search for Another Location

Airport or City:

Trip Planner

Search our weather history database for the weather conditions in past years. The results will help you decide how hot, cold, wet, or windy it might be!

Date:

Astronomy

Apr. 09, 2014 Rise Set
Actual Time 6:48 AM CEST 8:22 PM CEST
Civil Twilight 6:12 AM CEST 8:58 PM CEST
Nautical Twilight 5:28 AM CEST 9:43 PM CEST
Astronomical Twilight 4:39 AM CEST 10:33 PM CEST
Moon 2:14 PM CEST (4/9) 4:12 AM CEST (4/9)
Length of Visible Light 14h 46m
Length of Day
13h 33m
Waxing Gibbous, 69% of the Moon is Illuminated
Apr 9
Waxing Gibbous
Apr 15
Full
Apr 22
Last Quarter
Apr 29
New
May 7
First Quarter

Hourly Weather History & Observations

Time (CEST) Temp. Windchill Dew Point Humidity Pressure Visibility Wind Dir Wind Speed Gust Speed Precip Events Conditions
12:00 AM 45 °F - 40 °F 75% 30.10 in 12 mi West 8.9 mph - - Rain Drizzle
12:25 AM 44.6 °F 39.2 °F 39.2 °F 81% 30.09 in 6.2 mi West 10.4 mph - N/A   Unknown
12:55 AM 44.6 °F 39.7 °F 39.2 °F 81% 30.09 in 6.2 mi West 9.2 mph - N/A   Unknown
1:00 AM 44 °F - 39 °F 76% 30.12 in 13 mi West 8.9 mph - -   Partly Cloudy
1:25 AM 42.8 °F 38.0 °F 39.2 °F 87% 30.09 in 6.2 mi West 8.1 mph - N/A   Unknown
1:55 AM 42.8 °F 38.0 °F 39.2 °F 87% 30.12 in 6.2 mi West 8.1 mph - N/A   Unknown
2:00 AM 41 °F - 38 °F 84% 30.13 in 12 mi WSW 6.7 mph - -   Partly Cloudy
2:25 AM 39.2 °F 35.0 °F 37.4 °F 93% 30.12 in 6.2 mi WSW 5.8 mph - N/A   Unknown
2:55 AM 39.2 °F 34.2 °F 37.4 °F 93% 30.12 in 6.2 mi WSW 6.9 mph - N/A   Unknown
3:00 AM 40 °F - 37 °F 87% 30.14 in 12 mi WSW 6.7 mph - -  
3:25 AM 37.4 °F 32.1 °F 35.6 °F 93% 30.12 in 6.2 mi SW 6.9 mph - N/A   Unknown
3:55 AM 37.4 °F 31.4 °F 35.6 °F 93% 30.12 in 6.2 mi SW 8.1 mph - N/A   Unknown
4:00 AM 37 °F - 36 °F 93% 30.14 in 11 mi SW 8.9 mph - -  
4:25 AM 39.2 °F 34.2 °F 37.4 °F 93% 30.12 in 6.2 mi WSW 6.9 mph - N/A   Partly Cloudy
4:55 AM 41.0 °F 35.2 °F 39.2 °F 93% 30.12 in 6.2 mi WSW 9.2 mph - N/A   Partly Cloudy
5:00 AM 42 °F - 39 °F 86% 30.14 in 11 mi WSW 8.9 mph - -  
5:25 AM 41.0 °F 35.8 °F 39.2 °F 93% 30.12 in 6.2 mi WSW 8.1 mph - N/A   Partly Cloudy
5:55 AM 41.0 °F 35.8 °F 39.2 °F 93% 30.12 in 6.2 mi WSW 8.1 mph - N/A   Scattered Clouds
6:00 AM 42 °F - 41 °F 93% 30.14 in 8 mi WSW 6.7 mph - -   Overcast
6:25 AM 41.0 °F 36.4 °F 39.2 °F 93% 30.12 in 6.2 mi WSW 6.9 mph - N/A   Unknown
6:55 AM 42.8 °F 38.0 °F 41.0 °F 93% 30.12 in 6.2 mi WSW 8.1 mph - N/A   Unknown
7:00 AM 42 °F - 40 °F 91% 30.14 in 7 mi WSW 8.9 mph - -  
7:25 AM 41.0 °F 36.4 °F 39.2 °F 93% 30.12 in 6.2 mi WSW 6.9 mph - N/A   Unknown
7:55 AM 44.6 °F 39.7 °F 41.0 °F 87% 30.12 in 6.2 mi WSW 9.2 mph - N/A   Unknown
8:00 AM 44 °F - 42 °F 89% 30.15 in 7 mi WSW 8.9 mph - -   Partly Cloudy
8:25 AM 44.6 °F 39.2 °F 42.8 °F 93% 30.15 in 6.2 mi WSW 10.4 mph - N/A   Unknown
8:55 AM 46.4 °F 41.1 °F 42.8 °F 87% 30.15 in 6.2 mi WSW 11.5 mph - N/A   Unknown
9:00 AM 47 °F - 44 °F 86% 30.17 in 8 mi WSW 11.2 mph - -  
9:25 AM 48.2 °F - 44.6 °F 87% 30.15 in 6.2 mi West 11.5 mph - N/A   Partly Cloudy
9:55 AM 50.0 °F - 44.6 °F 82% 30.15 in 6.2 mi West 13.8 mph - N/A   Mostly Cloudy
10:00 AM 49 °F - 44 °F 76% 30.17 in 8 mi West 13.4 mph - -   Overcast
10:25 AM 50.0 °F - 42.8 °F 76% 30.15 in 6.2 mi West 16.1 mph - N/A   Mostly Cloudy
10:55 AM 50.0 °F - 42.8 °F 76% 30.15 in 6.2 mi WNW 15.0 mph - N/A   Mostly Cloudy
11:00 AM 52 °F - 42 °F 60% 30.18 in 14 mi West 15.7 mph - -   Overcast
11:25 AM 51.8 °F - 42.8 °F 71% 30.15 in 6.2 mi WNW 13.8 mph - N/A   Mostly Cloudy
11:55 AM 51.8 °F - 42.8 °F 71% 30.15 in 6.2 mi West 16.1 mph - N/A   Mostly Cloudy
12:00 PM 52 °F - 41 °F 57% 30.18 in 14 mi West 15.7 mph - -   Scattered Clouds
12:25 PM 53.6 °F - 41.0 °F 62% 30.15 in 6.2 mi West 15.0 mph - N/A   Overcast
12:55 PM 51.8 °F - 42.8 °F 71% 30.15 in 6.2 mi West 12.7 mph - N/A   Overcast
1:00 PM 53 °F - 43 °F 58% 30.18 in 14 mi West 13.4 mph - -   Overcast
1:25 PM 53.6 °F - 42.8 °F 67% 30.15 in 6.2 mi West 17.3 mph - N/A   Mostly Cloudy
1:55 PM 51.8 °F - 44.6 °F 76% 30.15 in 6.2 mi West 16.1 mph - N/A   Mostly Cloudy
2:00 PM 52 °F - 44 °F 65% 30.18 in 14 mi West 15.7 mph - -   Partly Cloudy
2:25 PM 51.8 °F - 44.6 °F 76% 30.15 in 6.2 mi West 15.0 mph - N/A   Mostly Cloudy
2:55 PM 51.8 °F - 44.6 °F 76% 30.15 in 6.2 mi West 13.8 mph - N/A   Overcast
3:00 PM 52 °F - 45 °F 68% 30.18 in 11 mi West 11.2 mph - - Rain Light Rain
3:25 PM 50.0 °F - 44.6 °F 82% 30.15 in 6.2 mi West 12.7 mph - N/A   Overcast
3:55 PM 51.8 °F - 44.6 °F 76% 30.15 in 6.2 mi West 12.7 mph - N/A   Mostly Cloudy
4:00 PM 51 °F - 45 °F 73% 30.17 in 7 mi West 13.4 mph - - Rain Rain
4:25 PM 50.0 °F - 46.4 °F 87% 30.15 in 3.7 mi West 15.0 mph - N/A Rain Drizzle
4:55 PM 50.0 °F - 46.4 °F 87% 30.15 in - West 12.7 mph - N/A   Light Drizzle
5:00 PM 49 °F - 47 °F 91% 30.18 in 2 mi West 13.4 mph - - Rain Heavy Drizzle
5:25 PM 48.2 °F - 46.4 °F 93% 30.15 in - West 11.5 mph - N/A   Light Drizzle
5:55 PM 48.2 °F - 46.4 °F 93% 30.15 in - West 11.5 mph - N/A   Mostly Cloudy
6:00 PM 49 °F - 47 °F 91% 30.18 in 2 mi West 13.4 mph - - Rain Heavy Rain
6:25 PM 48.2 °F - 46.4 °F 93% 30.15 in 1.4 mi West 10.4 mph - N/A Rain Light Rain
6:55 PM 48.2 °F - 46.4 °F 93% 30.15 in 1.7 mi West 10.4 mph - N/A Rain Light Rain
7:00 PM 48 °F - 47 °F 95% 30.18 in 3 mi West 8.9 mph - - Rain Light Rain Showers
7:25 PM 48.2 °F - 46.4 °F 93% 30.15 in 5.6 mi West 9.2 mph - N/A   Overcast
7:55 PM 48.2 °F - 46.4 °F 93% 30.15 in - West 10.4 mph - N/A   Overcast
8:00 PM 48 °F - 47 °F 94% 30.19 in 2 mi West 8.9 mph - - Rain Rain
8:25 PM 48.2 °F - 46.4 °F 93% 30.18 in 1.3 mi West 9.2 mph - N/A   Drizzle
8:55 PM 48.2 °F - 46.4 °F 93% 30.18 in 1.6 mi West 9.2 mph - N/A Rain Light Rain
9:00 PM 48 °F - 47 °F 96% 30.19 in 2 mi West 8.9 mph - - Rain Drizzle
9:25 PM 48.2 °F - 46.4 °F 93% 30.18 in 2.2 mi West 8.1 mph - N/A   Drizzle
9:55 PM 48.2 °F - 46.4 °F 93% 30.18 in 1.6 mi West 9.2 mph - N/A   Heavy Drizzle
10:00 PM 48 °F - 47 °F 96% 30.20 in 1 mi West 6.7 mph - - Rain Heavy Drizzle
10:25 PM 48.2 °F - 46.4 °F 93% 30.18 in 1.7 mi West 8.1 mph - N/A   Drizzle
10:55 PM 48.2 °F - 48.2 °F 100% 30.18 in - West 6.9 mph - N/A   Mostly Cloudy
11:00 PM 48 °F - 47 °F 96% 30.19 in 3 mi West 6.7 mph - - Rain Drizzle
11:25 PM 48.2 °F - 46.4 °F 93% 30.18 in 3.1 mi West 5.8 mph - N/A   Overcast
11:55 PM 48.2 °F - 48.2 °F 100% 30.18 in 1.5 mi West 6.9 mph - N/A   Light Drizzle